[[{"header":{"parameterUnit":"m.s-1","parameterCategory":1,"la1":30.2992,"la2":30.254,"lo1":-89.0895,"lo2":-89.0443,"dy":0.0025,"dx":0.0025,"nx":19,"ny":19,"refTime":"2026-05-09T09:00:00:Z","depth":0,"parameterNumber":2,"parameterNumberName":"U-component_of_WINDS"},"data":[0,0,0,-3.059,-3.0589,-3.0557,-3.0556,-3.0528,-3.0527,0,0,0,0,0,0,0,0,0,0,0,-3.0609,-3.0609,-3.059,-3.0589,-3.0557,-3.0556,-3.0528,-3.0527,0,0,0,0,0,0,0,0,0,0,0,-3.0609,-3.0609,-3.0609,-3.0589,-3.0557,-3.0556,-3.0528,-3.0547,0,0,0,0,0,0,0,0,0,0,-3.0577,-3.0604,-3.0609,-3.0609,-3.0589,-3.0557,-3.0556,-3.0548,-3.0546,-3.0548,0,-3.0554,0,-3.054,-3.0527,-3.0526,0,0,0,-3.0582,-3.0605,-3.0588,-3.0609,-3.0589,-3.0557,-3.0569,-3.0547,-3.0545,-3.0546,-3.0553,-3.0552,-3.054,-3.0526,-3.0526,-3.0565,-3.0565,0,0,-3.0584,-3.0608,-3.059,-3.0587,-3.0595,-3.0571,-3.0569,-3.0545,-3.0555,-3.0553,-3.0551,-3.0539,-3.0526,-3.0526,-3.0564,-3.0565,0,0,0,-3.0594,-3.0609,-3.0592,-3.0589,-3.0582,-3.057,-3.0567,-3.0556,-3.0548,-3.0551,-3.0539,-3.0526,-3.0526,-3.0563,-3.0564,-3.0612,0,0,0,-3.0595,-3.0615,-3.0594,-3.0608,-3.0583,-3.0569,-3.0579,-3.055,-3.0546,-3.0539,-3.0526,-3.0526,-3.0563,-3.0564,-3.0609,-3.063,0,0,0,-3.0608,-3.0616,-3.0615,-3.0609,-3.0596,-3.0569,-3.056,-3.0549,-3.054,-3.0526,-3.0526,-3.0562,-3.0564,-3.0607,-3.0626,-3.0646,0,0,0,-3.0628,-3.0658,-3.0616,-3.0645,-3.0596,-3.0599,-3.0559,-3.056,-3.0555,-3.0526,-3.0563,-3.0564,-3.0606,-3.0624,-3.0644,-3.0666,-3.0678,0,0,-3.0679,-3.0665,-3.068,-3.0642,-3.0658,-3.0602,-3.0625,-3.0597,-3.0574,-3.0569,-3.0569,-3.061,-3.0626,-3.0646,-3.0738,-3.0748,0,0,0,-3.0705,-3.0716,-3.0715,-3.0711,-3.0691,-3.0674,-3.0641,-3.063,-3.0624,-3.0576,-3.0622,-3.0631,-3.0642,-3.0651,-3.0659,-3.0666,-3.057,-3.057,-3.057,-3.081,-3.0779,-3.0801,-3.0766,-3.0763,-3.0727,-3.0721,-3.07,-3.067,-3.0681,-3.0679,-3.074,-3.0752,-3.0758,-3.0765,-3.069,-3.069,-3.069,-3.069,-3.0881,-3.0891,-3.085,-3.0857,-3.0823,-3.0828,-3.0795,-3.0773,-3.0771,-3.0739,-3.0746,-3.0713,-3.0769,-3.0774,-3.0693,-3.0693,-3.0692,-3.0692,-3.0692,-3.0945,-3.0945,-3.0932,-3.0922,-3.0917,-3.088,-3.0881,-3.085,-3.0821,-3.0829,-3.0822,-3.0821,-3.0815,-3.0828,-3.0828,-3.0828,-3.0829,-3.0829,-3.0829,-3.1017,-3.1001,-3.1006,-3.0986,-3.0979,-3.0965,-3.0929,-3.092,-3.0903,-3.088,-3.088,-3.0847,-3.0781,-3.0764,-3.0832,-3.0831,-3.0831,-3.0831,-3.0831,-3.1098,-3.1075,-3.1082,-3.1075,-3.1049,-3.1045,-3.1006,-3.0991,-3.0979,-3.098,-3.0946,-3.0902,-3.0886,-3.0879,-3.0865,-3.0954,-3.0954,-3.0954,-3.0954,-3.1152,-3.114,-3.114,-3.113,-3.1117,-3.1082,-3.1089,-3.1061,-3.1028,-3.1018,-3.1001,-3.098,-3.0974,-3.096,-3.0952,-3.0938,-3.1044,-3.1044,-3.1044,-3.1199,-3.1185,-3.1198,-3.1166,-3.1143,-3.1123,-3.1128,-3.1117,-3.1074,-3.1047,-3.1009,-3.1005,-3.0971,-3.0962,-3.0933,-3.0921,-3.0895,0,0]},{"header":{"parameterUnit":"m.s-1","parameterCategory":1,"la1":30.2992,"la2":30.254,"lo1":-89.0895,"lo2":-89.0443,"dy":0.0025,"dx":0.0025,"nx":19,"ny":19,"refTime":"2026-05-09T09:00:00:Z","depth":0,"parameterNumber":3,"parameterNumberName":"V-component_of_WINDS"},"data":[0,0,0,-2.1306,-2.1308,-2.1411,-2.1411,-2.1541,-2.1542,0,0,0,0,0,0,0,0,0,0,0,-2.1274,-2.1275,-2.1306,-2.1308,-2.1411,-2.1411,-2.1541,-2.1542,0,0,0,0,0,0,0,0,0,0,0,-2.1274,-2.1275,-2.1276,-2.1309,-2.1411,-2.1411,-2.1541,-2.1464,0,0,0,0,0,0,0,0,0,0,-2.1364,-2.1334,-2.1274,-2.1276,-2.1309,-2.1411,-2.1411,-2.146,-2.1469,-2.1494,0,-2.1515,0,-2.1531,-2.1551,-2.1551,0,0,0,-2.1309,-2.1326,-2.1355,-2.1276,-2.131,-2.141,-2.1365,-2.1465,-2.1474,-2.1505,-2.1517,-2.1522,-2.1533,-2.1552,-2.1552,-2.1692,-2.1693,0,0,-2.1304,-2.1292,-2.1349,-2.1361,-2.1345,-2.1361,-2.1368,-2.1471,-2.1484,-2.1518,-2.1525,-2.1535,-2.1552,-2.1553,-2.1691,-2.1692,0,0,0,-2.1287,-2.1288,-2.1314,-2.1356,-2.1375,-2.1364,-2.1372,-2.1479,-2.1489,-2.1527,-2.1537,-2.1553,-2.1555,-2.1691,-2.1692,-2.1709,0,0,0,-2.1283,-2.1278,-2.1312,-2.1306,-2.1373,-2.1428,-2.1378,-2.1481,-2.1493,-2.1536,-2.1553,-2.1556,-2.169,-2.1691,-2.1707,-2.1718,0,0,0,-2.1268,-2.1276,-2.1291,-2.1305,-2.1349,-2.1427,-2.1442,-2.1484,-2.1499,-2.1551,-2.1556,-2.169,-2.1691,-2.1705,-2.1716,-2.175,0,0,0,-2.1248,-2.1305,-2.1291,-2.1359,-2.1348,-2.1437,-2.1442,-2.1509,-2.1555,-2.1554,-2.169,-2.1692,-2.1705,-2.1714,-2.1748,-2.1776,-2.1787,0,0,-2.1314,-2.1313,-2.1354,-2.1344,-2.1432,-2.1422,-2.1513,-2.1567,-2.1584,-2.1655,-2.1659,-2.1707,-2.1715,-2.175,-2.1855,-2.1863,0,0,0,-2.137,-2.1399,-2.1425,-2.1469,-2.1511,-2.1548,-2.1589,-2.161,-2.167,-2.1618,-2.1731,-2.1736,-2.1756,-2.177,-2.1777,-2.1795,-2.1698,-2.1698,-2.1698,-2.1446,-2.1463,-2.1531,-2.156,-2.1602,-2.1644,-2.1679,-2.1713,-2.1719,-2.1746,-2.1766,-2.1828,-2.1843,-2.1849,-2.1867,-2.1784,-2.1784,-2.1784,-2.1784,-2.1542,-2.1585,-2.159,-2.1658,-2.1675,-2.1733,-2.1776,-2.1778,-2.1833,-2.1814,-2.1833,-2.1808,-2.1858,-2.1875,-2.1785,-2.1785,-2.1785,-2.1785,-2.1785,-2.1591,-2.1615,-2.1638,-2.1702,-2.1749,-2.1777,-2.183,-2.1845,-2.186,-2.1879,-2.1901,-2.1901,-2.1901,-2.1889,-2.1889,-2.1889,-2.1889,-2.1889,-2.189,-2.1633,-2.1658,-2.1701,-2.175,-2.1779,-2.182,-2.1863,-2.1892,-2.1928,-2.1935,-2.1935,-2.1937,-2.186,-2.1839,-2.1893,-2.1892,-2.1892,-2.1892,-2.1891,-2.1721,-2.1703,-2.1768,-2.1798,-2.1856,-2.1902,-2.1921,-2.1979,-2.2006,-2.2031,-2.203,-2.1971,-2.1971,-2.1965,-2.1948,-2.2027,-2.2027,-2.2027,-2.2027,-2.1761,-2.1763,-2.1832,-2.1878,-2.1924,-2.1948,-2.2021,-2.2054,-2.2087,-2.2104,-2.2096,-2.2075,-2.2068,-2.2072,-2.2064,-2.2048,-2.2151,-2.2151,-2.2151,-2.1815,-2.1822,-2.188,-2.1911,-2.1958,-2.1998,-2.2067,-2.2119,-2.2153,-2.2157,-2.2118,-2.2113,-2.2079,-2.2068,-2.2068,-2.2056,-2.2027,0,0]}]]